sat.trackr.live / text

‹ back to catalog

HULIANWANG DIGUI-109

NORAD 66919 · 2025-285E

PAYLOAD ACTIVE UNKNOWN

§ Identity

Operator
Country
PRC
Launch date
2025-12-06
Launch site
WSC
Launch vehicle
Mass (kg)
RCS (m²)

External: N2YO · Heavens-Above · Gunter

§ Orbital elements

Epoch: 2026-05-24T21:53:02.951808Z

Period
108.32 min
Inclination
50.0068°
Eccentricity
0.0001008
Mean motion
13.29336800 rev/d
Perigee alt
1,148.5 km
Apogee alt
1,150.0 km
Semi-major
7,527.4 km
B*
5.6709e-5
RAAN
229.4328°
Arg perigee
214.3364°
Mean anomaly
145.7444°
Rev number
2,297

§ Raw data

HULIANWANG DIGUI-1091 66919U 25285E   26144.91183972 -.00000098  00000+0  56709-4 0  99982 66919  50.0068 229.4328 0001008 214.3364 145.7444 13.29336800 22978

JSON: /api/v1/satellites/66919 · /tle

For live sub-satellite position, see the globe view (requires WebGL).

§ Visibility from observer

Set your observer location to see the next 7 days of passes ≥ 10°. The values pass through the URL so the page stays shareable.

No JS? Fill the form by hand. The geolocation button needs JavaScript.